Voltar ao catálogo

FENGYUN 1C DEB

AtivoSSO
NORAD 43359·DEBRIS·🇨🇳 China

Lançado May 10, 1999 de Taiyuan Satellite Launch Center

Loading…

Próximas Passagens (próximas 24 horas)

TLE

AtualizadoSource: Space-Track

Época: Sep 14, 2026, 05:00 UTC

1 43359U 99025EYQ 26257.20894724  .00002615  00000-0  10961-2 0  9990
2 43359  99.0472 350.4408 0071154 302.3153  57.1148 14.25540169516719

Acompanhe FENGYUN 1C DEB em tempo real com AllMySat

Download on the App Store